TimeCDT,TemperatureF,Dew PointF,Humidity,Sea Level PressureIn,VisibilityMPH,Wind Direction,Wind SpeedMPH,Gust SpeedMPH,PrecipitationIn,Events,Conditions,WindDirDegrees,DateUTC
12:14 AM,71.6,69.8,94,29.86,10.0,Calm,Calm,-,0.01,,Mostly Cloudy,0,2013-08-30 05:14:00
12:34 AM,71.6,69.8,94,29.86,10.0,Calm,Calm,-,0.01,,Scattered Clouds,0,2013-08-30 05:34:00
12:54 AM,69.8,68.0,94,29.86,7.0,Calm,Calm,-,0.01,,Clear,0,2013-08-30 05:54:00
1:15 AM,69.8,68.0,94,29.86,10.0,Calm,Calm,-,N/A,,Clear,0,2013-08-30 06:15:00
1:34 AM,69.8,68.0,94,29.86,10.0,Calm,Calm,-,N/A,,Clear,0,2013-08-30 06:34:00
1:54 AM,69.8,68.0,94,29.85,5.0,Calm,Calm,-,N/A,,Clear,0,2013-08-30 06:54:00
2:15 AM,69.8,69.8,100,29.85,3.0,Calm,Calm,-,N/A,,Clear,0,2013-08-30 07:15:00
2:34 AM,69.8,69.8,100,29.85,7.0,NW,5.8,-,N/A,,Clear,320,2013-08-30 07:34:00
2:54 AM,69.8,69.8,100,29.86,10.0,Calm,Calm,-,N/A,,Clear,0,2013-08-30 07:54:00
3:14 AM,69.8,69.8,100,29.86,10.0,North,3.5,-,N/A,,Clear,360,2013-08-30 08:14:00
3:35 AM,68.0,68.0,100,29.87,10.0,North,3.5,-,N/A,,Clear,360,2013-08-30 08:35:00
3:54 AM,68.0,66.2,94,29.88,10.0,Calm,Calm,-,N/A,,Clear,0,2013-08-30 08:54:00
4:15 AM,68.0,66.2,94,29.88,10.0,Calm,Calm,-,N/A,,Clear,0,2013-08-30 09:15:00
4:34 AM,68.0,64.4,88,29.88,10.0,North,3.5,-,N/A,,Clear,10,2013-08-30 09:34:00
4:54 AM,68.0,64.4,88,29.89,10.0,North,4.6,-,N/A,,Scattered Clouds,360,2013-08-30 09:54:00
5:15 AM,68.0,64.4,88,29.90,10.0,North,5.8,-,N/A,,Overcast,350,2013-08-30 10:15:00
5:34 AM,66.2,64.4,94,29.90,10.0,North,4.6,-,N/A,,Overcast,360,2013-08-30 10:34:00
5:55 AM,64.4,62.6,94,29.91,10.0,North,6.9,-,N/A,,Overcast,360,2013-08-30 10:55:00
6:14 AM,64.4,62.6,94,29.91,10.0,Calm,Calm,-,N/A,,Overcast,0,2013-08-30 11:14:00
6:35 AM,64.4,62.6,94,29.92,10.0,North,5.8,-,N/A,,Mostly Cloudy,10,2013-08-30 11:35:00
6:55 AM,64.4,60.8,88,29.93,10.0,North,5.8,-,N/A,,Overcast,360,2013-08-30 11:55:00
7:14 AM,64.4,60.8,88,29.93,10.0,Calm,Calm,-,N/A,,Overcast,0,2013-08-30 12:14:00
7:35 AM,64.4,60.8,88,29.94,10.0,North,3.5,-,N/A,,Overcast,360,2013-08-30 12:35:00
7:54 AM,64.4,60.8,88,29.94,10.0,NNE,3.5,-,N/A,,Overcast,20,2013-08-30 12:54:00
8:14 AM,64.4,60.8,88,29.96,10.0,North,6.9,-,N/A,,Overcast,10,2013-08-30 13:14:00
8:34 AM,64.4,59.0,83,29.96,10.0,NNE,5.8,-,N/A,,Overcast,30,2013-08-30 13:34:00
8:55 AM,64.4,59.0,83,29.97,10.0,NE,5.8,-,N/A,,Overcast,40,2013-08-30 13:55:00
9:15 AM,64.4,59.0,83,29.97,10.0,NNE,4.6,-,N/A,,Overcast,20,2013-08-30 14:15:00
9:34 AM,64.4,59.0,83,29.98,10.0,NNE,3.5,-,N/A,,Overcast,30,2013-08-30 14:34:00
9:55 AM,66.2,59.0,78,29.98,10.0,NE,3.5,-,N/A,,Overcast,40,2013-08-30 14:55:00
10:15 AM,69.8,60.8,73,29.99,10.0,North,4.6,-,N/A,,Overcast,350,2013-08-30 15:15:00
10:34 AM,69.8,60.8,73,29.99,10.0,NNE,5.8,-,N/A,,Overcast,20,2013-08-30 15:34:00
10:54 AM,69.8,60.8,73,29.99,10.0,NNE,5.8,-,N/A,,Overcast,20,2013-08-30 15:54:00
11:14 AM,69.8,60.8,73,29.99,10.0,ENE,6.9,-,N/A,,Overcast,60,2013-08-30 16:14:00
11:34 AM,69.8,60.8,73,29.99,10.0,NE,5.8,-,N/A,,Overcast,50,2013-08-30 16:34:00
11:54 AM,73.4,60.8,65,29.98,10.0,NE,5.8,16.1,N/A,,Overcast,50,2013-08-30 16:54:00
12:14 PM,73.4,60.8,65,29.98,10.0,NE,5.8,-,N/A,,Overcast,50,2013-08-30 17:14:00
12:34 PM,75.2,62.6,65,29.98,10.0,NNE,6.9,-,N/A,,Overcast,30,2013-08-30 17:34:00
12:54 PM,75.2,62.6,65,29.98,10.0,East,6.9,-,N/A,,Mostly Cloudy,80,2013-08-30 17:54:00
1:14 PM,73.4,60.8,65,29.98,10.0,ENE,6.9,-,N/A,,Mostly Cloudy,70,2013-08-30 18:14:00
1:34 PM,77.0,60.8,57,29.98,10.0,NE,5.8,18.4,N/A,,Scattered Clouds,50,2013-08-30 18:34:00
1:54 PM,78.8,60.8,54,29.98,10.0,East,10.4,-,N/A,,Scattered Clouds,100,2013-08-30 18:54:00
2:14 PM,78.8,60.8,54,29.98,10.0,ENE,8.1,-,N/A,,Scattered Clouds,60,2013-08-30 19:14:00
2:34 PM,78.8,60.8,54,29.97,10.0,ENE,4.6,-,N/A,,Scattered Clouds,70,2013-08-30 19:34:00
2:54 PM,78.8,60.8,54,29.96,10.0,East,5.8,-,N/A,,Scattered Clouds,80,2013-08-30 19:54:00
3:14 PM,78.8,60.8,54,29.96,10.0,NNE,5.8,-,N/A,,Scattered Clouds,20,2013-08-30 20:14:00
3:34 PM,78.8,60.8,54,29.95,10.0,NNE,3.5,-,N/A,,Scattered Clouds,30,2013-08-30 20:34:00
3:54 PM,78.8,59.0,51,29.95,10.0,NE,3.5,-,N/A,,Scattered Clouds,40,2013-08-30 20:54:00
4:14 PM,80.6,59.0,48,29.95,10.0,Calm,Calm,-,N/A,,Scattered Clouds,0,2013-08-30 21:14:00
4:34 PM,80.6,59.0,48,29.95,10.0,East,4.6,-,N/A,,Clear,80,2013-08-30 21:34:00
4:54 PM,78.8,59.0,51,29.94,10.0,NNE,3.5,-,N/A,,Clear,30,2013-08-30 21:54:00
5:14 PM,78.8,59.0,51,29.94,10.0,NE,4.6,-,N/A,,Clear,40,2013-08-30 22:14:00
5:34 PM,78.8,59.0,51,29.93,10.0,ENE,4.6,-,N/A,,Clear,60,2013-08-30 22:34:00
5:54 PM,78.8,59.0,51,29.93,10.0,NE,3.5,-,N/A,,Clear,40,2013-08-30 22:54:00
6:14 PM,78.8,59.0,51,29.93,10.0,NNE,5.8,-,N/A,,Clear,30,2013-08-30 23:14:00
6:35 PM,77.0,59.0,54,29.93,10.0,Calm,Calm,-,N/A,,Clear,0,2013-08-30 23:35:00
6:54 PM,75.2,59.0,57,29.93,10.0,Calm,Calm,-,N/A,,Clear,0,2013-08-30 23:54:00
7:15 PM,75.2,60.8,61,29.93,10.0,Calm,Calm,-,N/A,,Clear,0,2013-08-31 00:15:00
7:34 PM,73.4,59.0,61,29.93,10.0,Calm,Calm,-,N/A,,Clear,0,2013-08-31 00:34:00
7:54 PM,71.6,59.0,64,29.93,10.0,Calm,Calm,-,N/A,,Clear,0,2013-08-31 00:54:00
8:14 PM,69.8,59.0,68,29.93,10.0,Calm,Calm,-,N/A,,Clear,0,2013-08-31 01:14:00
8:34 PM,69.8,60.8,73,29.93,10.0,Calm,Calm,-,N/A,,Clear,0,2013-08-31 01:34:00
8:54 PM,68.0,59.0,73,29.93,10.0,Calm,Calm,-,N/A,,Clear,0,2013-08-31 01:54:00
9:14 PM,64.4,59.0,83,29.93,10.0,Calm,Calm,-,N/A,,Clear,0,2013-08-31 02:14:00
9:34 PM,64.4,59.0,83,29.93,10.0,Calm,Calm,-,N/A,,Clear,0,2013-08-31 02:34:00
9:54 PM,64.4,59.0,83,29.93,10.0,ENE,3.5,-,N/A,,Clear,70,2013-08-31 02:54:00
10:14 PM,64.4,59.0,83,29.93,10.0,Calm,Calm,-,N/A,,Clear,0,2013-08-31 03:14:00
10:34 PM,64.4,60.8,88,29.93,10.0,Calm,Calm,-,N/A,,Clear,0,2013-08-31 03:34:00
10:54 PM,64.4,60.8,88,29.93,10.0,Calm,Calm,-,N/A,,Clear,0,2013-08-31 03:54:00
11:15 PM,62.6,59.0,88,29.93,10.0,Calm,Calm,-,N/A,,Clear,0,2013-08-31 04:15:00
11:34 PM,62.6,59.0,88,29.93,10.0,Calm,Calm,-,N/A,,Clear,0,2013-08-31 04:34:00
11:54 PM,60.8,57.2,88,29.94,10.0,Calm,Calm,-,N/A,,Clear,0,2013-08-31 04:54:00